Location: Tr�vern
(48.0333°N, 4.6000°W)
Time: 08:10:47
(UTC+00:00)

Cosmos 192 - Pass Details

Date: 14 July 2020
Orbit: 702 x 712 km, 74.0° (Epoch: 04 August)

Event Time Altitude Azimuth Distance (km) Brightness Sun altitude
Rises 02:41:10 0° 336° (NNW) 3,105 8.1 -13.9°
Reaches altitude 10° 02:43:30 10° 335° (NNW) 2,181 7.3 -13.7°
Maximum altitude 02:48:25 80° 250° (WSW) 719 4.3 -13.2°
Drops below altitude 10° 02:53:18 10° 163° (SSE) 2,163 6.5 -12.8°
Enters shadow 02:54:50 - 163° (SSE) 2,767 7.0 -12.6°
